Location: Campillo
(40.8621°N, 4.2488°W)
Time: 16:56:45
(UTC+00:00)

Cosmos 1777 Rocket - Pass Details

Date: 26 September 2021
Orbit: 759 x 775 km, 74.0° (Epoch: 23 October)

Event Time Altitude Azimuth Distance (km) Brightness Sun altitude
Rises 19:16:45 0° 200° (SSW) 3,225 7.4 -13.9°
Reaches altitude 10° 19:19:07 10° 202° (SSW) 2,300 6.6 -14.4°
Maximum altitude 19:24:20 81° 289° (WNW) 781 4.1 -15.3°
Drops below altitude 10° 19:29:35 10° 17° (NNE) 2,305 6.4 -16.3°
Sets 19:31:58 0° 19° (NNE) 3,233 7.2 -16.8°
